Regional Weather Roundup
Issued by NWS

Home | Current Version | Previous Version | Graphics & Text | Print | Product List | Glossary On
Versions: 1 2 3 4 5 6 7 8 9 10 11 12 13 14 15 16 17 18 19 20 21 22 23 24 25 26 27 28 29 30 31 32 33 34 35 36 37 38 39 40 41 42 43 44 45 46 47 48 49 50
338
ASUS45 KTFX 221710
RWRMT
MONTANA REGIONAL WEATHER ROUNDUP
NATIONAL WEATHER SERVICE GREAT FALLS MT
1000 AM MST SUN JAN 22 2017

NOTE: "FAIR" INDICATES FEW OR NO CLOUDS BELOW 12000 FEET WITH NO
SIGNIFICANT WEATHER AND/OR OBSTRUCTIONS TO VISIBILITY.

MTZ001>007-043-221800-
WEST OF THE DIVIDE

CITY           SKY/WX    TMP DP  RH WIND       PRES   REMARKS
KALISPELL      FLURRIES  21  19  92 CALM      29.78F
MISSOULA       FOG       14  13  95 SW5       29.81S VSB<1/4
BUTTE          SUNNY      9   4  80 NE5       29.81R
MULLAN PASS    FOG       24  21  88 SE9       29.63F VSB 1/2 WCI  14
ANACONDA         N/A     25  12  58 SE10      29.79F WCI  15
DEER LODGE       N/A     27  16  63 SE7       29.82S WCI  19
EUREKA           N/A     27  25  93 CALM      29.80F
HAMILTON         N/A     18  16  93 CALM        N/A  VSB 0
PLAINS           N/A     15  10  80 CALM      29.81  VSB 0
RONAN            N/A     26  24  92 CALM      29.83S VSB 0
$$

MTZ008-052>055-221800-
SOUTHWEST MONTANA

CITY           SKY/WX    TMP DP  RH WIND       PRES   REMARKS
BOZEMAN        SUNNY     14   9  80 S6        29.85S WCI   5
DILLON         CLOUDY   N/A N/A N/A CALM      29.81F
W YELLOWSTONE  LGT SNOW  23  19  86 SW7       29.87S WCI  15
ENNIS          PTSUNNY   27  16  63 S16G22    29.88F WCI  14
TWIN BRIDGES     N/A     14   5  67 E5        29.85S
$$

MTZ009-010-012-014-046-048-049-054-221800-
EAST SLOPES AND CENTRAL MONTANA

CITY           SKY/WX    TMP DP  RH WIND       PRES   REMARKS
CUT BANK       CLOUDY    23  22  96 N5        29.80S FOG
GREAT FALLS    CLOUDY    27  21  78 E6        29.81F WCI  20
MALMSTROM AFB  CLOUDY    26  25  96 NE6       29.83F WCI  19
HELENA         SUNNY     10   8  92 CALM      29.85S FOG
AUGUSTA          N/A     25  20  81 SE6       29.78S WCI  18
BOWMANS CRNR     N/A     24  17  77 SW7       29.77S WCI  16
CHOTEAU        FOG       19  19 100 CALM      29.82S VSB 0
CONRAD           N/A     24  23  96 W2        29.84F VSB 0
POWER          PTSUNNY   20  19  96 N5        29.80F FOG
RAYNESFORD       N/A     26  21  83 CALM      29.81S
ULM              N/A     25  22  87 MISG      29.81F
$$

MTZ011-013-016-021-045-047-050-051-221800-
NORTH CENTRAL MONTANA

CITY           SKY/WX    TMP DP  RH WIND       PRES   REMARKS
HAVRE          CLOUDY    27  27 100 SW9       29.87R FOG     WCI  18
LEWISTOWN      SUNNY     27  20  75 CALM      29.81S
CHINOOK          N/A     28  28 100 W8        29.87S WCI  20
DENTON         FOG       22  21  96 CALM      29.81R VSB 1/8
FORT BENTON      N/A     27  25  93 MISG      29.87S
GEYSER           N/A     24  21  90 E6        29.81R WCI  17
GRASS RANGE      N/A     34  23  62 SW13      29.78R WCI  25
JUDITH GAP       N/A     32  17  55 CALM      29.80R
ROY              N/A     30  24  77 MISG      29.81R
STANFORD         N/A     28  21  77 NE6       29.80R WCI  21
WINIFRED       SNOWSHWR  22  21  98 W8        29.83R VSB 1/16WCI  12
$$

MTZ017>020-022>027-061-062-221800-
NORTHEAST MONTANA

CITY           SKY/WX    TMP DP  RH WIND       PRES   REMARKS
GLASGOW        CLOUDY    28  25  88 W8        29.84R WCI  20
JORDAN           N/A     28  24  85 NW10      29.85R WCI  19
SIDNEY         CLOUDY    29  26  89 W12       29.84R WCI  19
WOLF POINT     CLOUDY    31  26  82 W12       29.85R WCI  22
PLENTYWOOD       N/A     30  27  86 W12       29.78R WCI  21
POPLAR           N/A     28  25  86 W10       29.84R WCI  19
SCOBEY           N/A     28  20  72 W10       29.78R WCI  19
$$

MTZ028>42-056>058-221800-
SOUTHCENTRAL AND SOUTHEAST MONTANA

CITY           SKY/WX    TMP DP  RH WIND       PRES   REMARKS
BAKER          CLOUDY    24  21  88 W16       29.84R WCI  11
BILLINGS       MOSUNNY   27  17  66 SW14      29.85R WCI  16
LIVINGSTON     SUNNY     35  16  45 SW24G30   29.81S WCI  23
MILES CITY     MOSUNNY   17  14  88 CALM      29.87S FOG
BIG TIMBER     SUNNY     34  18  51 W16       29.84S WCI  23
EKALAKA          N/A     24  17  74 SW12      29.81R WCI  13
FORSYTH          N/A     18  14  86 CALM      29.86R
HARLOWTON        N/A     29  19  65 W12       29.81S WCI  20
LAUREL           N/A     24  11  57 S8        29.85R WCI  15
$$

REGIONAL REPORTS...DAKOTAS

CITY           SKY/WX    TMP DP  RH WIND       PRES   REMARKS
WILLISTON      CLOUDY    30  27  88 W12       29.81R WCI  20
MINOT          CLOUDY    32  29  88 W13       29.75R WCI  22
DICKINSON      CLOUDY    25  23  92 NW21      29.78S WCI  11
BEACH          CLOUDY    25  25 100 W14       29.85R FOG     WCI  13
CROSBY         CLOUDY    28  28 100 NW14      29.79R WCI  17
TIOGA          CLOUDY    28  28 100 W15       29.78R WCI  17
WATFORD CITY   CLOUDY    28  27  93 W14       29.81R WCI  17
BISMARCK       CLOUDY    31  28  89 W9        29.80R WCI  23
GRAND FORKS    CLOUDY    35  30  82 W7        29.74R WCI  29
FARGO          CLOUDY    35  32  88 W9        29.76R FOG     WCI  28
BUFFALO SD       N/A     24  19  81 W10       29.76R WCI  14
RAPID CITY     SUNNY     38  24  57 N10       29.85R WCI  31
$$

REGIONAL REPORTS...WYOMING/IDAHO/WASHINGTON

CITY           SKY/WX    TMP DP  RH WIND       PRES   REMARKS
GILLETTE       SUNNY     33  22  63 W14       29.85R WCI  23
SHERIDAN       SUNNY     30  18  60 VRB6      29.85S WCI  24
BUFFALO WY     SUNNY     30  16  56 S5        29.84S
CODY           SUNNY     35  13  40 W8        29.86R WCI  29
YELLOWSTONE LA   N/A     19  18  95 CALM      29.87S
IDAHO FALLS    CLOUDY    21  18  88 N7        29.90F WCI  12
SALMON         SUNNY     12  10  92 CALM      29.84F
BOISE          CLOUDY    39  26  59 SE20      29.69R WCI  29
SPOKANE        PTSUNNY   35  31  85 E14       29.63F WCI  26
$$

REGIONAL REPORTS...ALBERTA

CITY           SKY/WX    TMP DP  RH WIND       PRES   REMARKS
EDMONTON       CLOUDY    16   9  73 NE3       29.94R
CALGARY        CLOUDY    21  19  93 E3        29.82S FOG
LETHBRIDGE     CLOUDY    27  25  93 VRB8      29.84S FOG     WCI  18
MEDICINE HAT   LGT SNOW  28  27  93 NW7       29.86R FOG     WCI  21
WATERTON GATE    N/A     23  23 100 NE3         N/A
MILK RIVER       N/A     25  25 100 N2          N/A
$$

REGIONAL REPORTS...SASKATCHEWAN

CITY           SKY/WX    TMP DP  RH WIND       PRES   REMARKS
SWIFT CURRENT  FLURRIES  23  21  93 NW15      29.78R WCI  10
REGINA         CLOUDY    27  23  86 NW15      29.74R WCI  15
SASKATOON      FLURRIES  21  18  86 N15       29.81R WCI   8
CYPRESS HILLS    N/A     23  19  86 NW3         N/A
VAL MARIE        N/A     27  25  93 NW9         N/A  WCI  17
ROCKGLEN         N/A     25  23  93 NW8         N/A  WCI  16
ASSINIBOIA       N/A     16  16 100 N2          N/A
$$




USA.gov is the U.S. government's official web portal to all federal, state and local government web resources and services.